Kentucky Observed Data For Previous 48 Hours

Caption
Day and Hour Reservoir Elevation (behind dam)* Tailwater Elevation (below dam)* Average Hourly Discharge*
5/20/2018 1 AM CDT 359.34 308.39 62,394
5/20/2018 2 AM CDT 359.37 308.45 62,190
5/20/2018 3 AM CDT 359.40 308.48 62,264
5/20/2018 4 AM CDT 359.44 308.41 61,995
5/20/2018 5 AM CDT 359.44 308.52 61,893
5/20/2018 6 AM CDT 359.46 308.59 62,100
5/20/2018 7 AM CDT 359.42 308.66 62,238
5/20/2018 8 AM CDT 359.35 308.64 62,308
5/20/2018 9 AM CDT 359.38 308.65 62,351
5/20/2018 10 AM CDT 359.38 308.70 62,070
5/20/2018 11 AM CDT 359.38 308.75 62,125
5/20/2018 12 PM CDT 359.36 308.89 62,104
5/20/2018 1 PM CDT 359.33 308.72 61,957
5/20/2018 2 PM CDT 359.31 309.00 62,256
5/20/2018 3 PM CDT 359.27 309.00 62,414
5/20/2018 4 PM CDT 359.25 309.02 62,622
5/20/2018 5 PM CDT 359.20 309.17 62,608
5/20/2018 6 PM CDT 359.12 309.19 62,610
5/20/2018 7 PM CDT 359.08 309.33 62,641
5/20/2018 8 PM CDT 359.14 309.25 62,637
5/20/2018 9 PM CDT 359.30 309.18 61,936
5/20/2018 10 PM CDT 359.29 309.31 62,210
5/20/2018 11 PM CDT 359.20 309.54 62,269
5/21/2018 12 AM CDT 359.36 308.35 29,912
5/21/2018 1 AM CDT 359.40 308.16 28,608
5/21/2018 2 AM CDT 359.33 308.54 28,714
5/21/2018 3 AM CDT 359.27 308.53 28,799
5/21/2018 4 AM CDT 359.30 308.36 28,786
5/21/2018 5 AM CDT 359.31 308.28 28,755
5/21/2018 6 AM CDT 359.28 308.19 28,785
5/21/2018 7 AM CDT 359.28 308.17 28,773
5/21/2018 8 AM CDT 359.28 308.12 28,742
5/21/2018 9 AM CDT 359.29 308.17 28,803
5/21/2018 10 AM CDT 359.20 308.71 37,218
5/21/2018 11 AM CDT 359.18 309.35 62,143
5/21/2018 12 PM CDT 359.20 309.18 62,471
5/21/2018 1 PM CDT 359.23 309.11 61,843
5/21/2018 2 PM CDT 359.24 309.14 61,912
5/21/2018 3 PM CDT 359.23 309.48 62,132
5/21/2018 4 PM CDT 359.19 309.36 62,239
5/21/2018 5 PM CDT 359.24 309.46 62,372
5/21/2018 6 PM CDT 359.13 309.44 62,309
5/21/2018 7 PM CDT 359.10 309.67 62,464
5/21/2018 8 PM CDT 359.12 309.61 62,532
5/21/2018 9 PM CDT 359.13 309.64 62,604
5/21/2018 10 PM CDT 359.25 308.92 37,045
5/21/2018 11 PM CDT 359.36 308.50 29,074
5/22/2018 12 AM CDT 359.38 308.81 28,936
5/22/2018 1 AM CDT 359.37 308.80 28,852
5/22/2018 2 AM CDT 359.38 308.68 28,796
5/22/2018 3 AM CDT 359.36 308.67 28,672
5/22/2018 4 AM CDT 359.34 308.63 28,701
5/22/2018 5 AM CDT 359.39 308.57 28,639
5/22/2018 6 AM CDT 359.38 308.55 28,538
5/22/2018 7 AM CDT 359.41 308.47 28,577
5/22/2018 8 AM CDT 359.44 308.34 28,517

Elevations are in feet above sea level. Discharges are in cubic feet per second and are reported at the end of the hour.